COSMOS 2251 DEB, 40228

Orbit data source: Space-Track

COSMOS 2251 DEB, 40228 is space debris in LEO originally from a launch on Wed, 16 Jun 1993 UTC launched from the Plesetsk Missile And Space Complex (PKMTR). The debris from Iridium 33, an American commercial communications satellite, has been tracked extensively since its accidental collision with the defunct Russian satellite Cosmos 2251 in 2009. This event, occurring at high speed in low Earth orbit (LEO), generated thousands of pieces of space debris, significantly increasing the risk of further collisions. The Iridium 33 debris cloud has impacted space traffic management and orbital debris mitigation strategies, making it a subject of ongoing study in space situational awareness.

Loading next visibility...
Identifier
40228, 1993-036BVH
Orbit
LEO
Country
Flag of CISCIS
Related business
Manufacturer
Unknown
Mission
Spacecraft
Bus & Motor
Unknown
Mass
Unknown
Launch date (UTC)
1993-06-16 (33 years ago)
Launch vehicle
Unknown
Launch site
Plesetsk Missile And Space Complex (PKMTR)
Object type
Payload
Rocket body
Debris
Shape & HBR
Unknown shape, 0.1 m
Radar Cross Section
Small (<0.1 m²)

Expand to show TLE details & history
Last TLE update: 14 hours ago

TLE from 14 hours ago
0 COSMOS 2251 DEB
1 40228U 93036BVH 26122.93414492  .00000736  00000-0  23512-3 0  9998
2 40228  74.0561 359.4499 0022638  28.1388 351.3411 14.41295728609551
Epoch: 2026-05-02T22:25Z
TLE epoch observation values (Epoch: 2026-05-02T22:25:10.121Z)
Latitude
18.66693°
Longitude
167.82163°
Altitude
740.357 km
Speed
7.495 km/s
True Right ascension
00h 19m 50s
True Declination
18° 33' 46"
Sunlit
Object was in daylight at epoch
Visualization orbit readout
Latitude
Unknown
Longitude
Unknown
Altitude
Unknown
Speed
Unknown
Apparent Right ascension
Unknown
Apparent Declination
Unknown
Sunlit
N/A
Visualization observer readout
Local Sidereal Time
19:51:41
Azimuth
Unknown
Elevation
Unknown
Doppler factor
Unknown
Orbital elements
Apogee altitude
767.978 km
Perigee altitude
735.696 km
Semi-major axis
7,129.974 km
Eccentricity
0.00226
Inclination
74.0561°
RAAN
359.4499°
Arg. of periapsis
28.1388°
True anomaly
351.30194°
Mean anomaly
351.3411°
Eccentric anomaly
351.32153°
Mean motion
3.60505 °/min
Orbital period
99.86 mins
BSTAR
0.00023512

Documentation

Showing up to 5 results
|